Location: Helensbirgh
(56.0153°N, 4.7348°W)
Time: 09:51:35
(UTC+00:00)

N. Korean satellite - Pass Details

Date: 29 October 2019
Orbit: 456 x 506 km, 97.2° (Epoch: 17 November)

Event Time Altitude Azimuth Distance (km) Brightness Sun altitude
Rises 17:53:23 0° 191° (S) 2,489 10.5 -9.9°
Reaches altitude 10° 17:55:35 10° 203° (SSW) 1,626 9.7 -10.2°
Maximum altitude 17:58:41 29° 265° (W) 897 8.8 -10.6°
Drops below altitude 10° 18:01:50 10° 327° (NNW) 1,663 9.6 -11.1°
Sets 18:04:07 0° 339° (NNW) 2,557 10.4 -11.4°
